• En España
  • Lista de países
  • Para 7 días
  • Temperatura del agua
  • Mapa Satelital
  • El tiempo en el mapa
  • Informadores
  • user-avatar
    Iniciar sesión

    Tiempo cada hora Yurtysh

    Hoy, 14 Agosto, Martes

    Tiempo Temperatura Precipitaciones Viento Presión Humedad
    00:00 +16°C° 0 mm 2 mps 746 mmHg 74%
    01:00 +16°C° 0 mm 2 mps 746 mmHg 74%
    02:00 +15°C° 0 mm 2 mps 747 mmHg 74%
    03:00 +15°C° 0 mm 2 mps 746 mmHg 73%
    04:00 +15°C° 0 mm 2 mps 747 mmHg 73%
    05:00 +16°C° 0 mm 2 mps 747 mmHg 72%
    06:00 +16°C° 0 mm 2 mps 747 mmHg 72%
    07:00 +17°C° 0 mm 2 mps 748 mmHg 68%
    08:00 +19°C° 0 mm 3 mps 748 mmHg 65%
    09:00 +20°C° 0 mm 3 mps 748 mmHg 61%
    10:00 +21°C° 0,3 mm 3 mps 748 mmHg 60%
    11:00 +21°C° 0,3 mm 4 mps 748 mmHg 58%
    12:00 +22°C° 0,3 mm 4 mps 748 mmHg 56%
    13:00 +22°C° 0,5 mm 4 mps 748 mmHg 57%
    14:00 +22°C° 0,5 mm 4 mps 748 mmHg 59%
    15:00 +22°C° 0,5 mm 4 mps 748 mmHg 60%
    16:00 +21°C° 0,3 mm 3 mps 748 mmHg 63%
    17:00 +21°C° 0,3 mm 3 mps 748 mmHg 67%
    18:00 +20°C° 0,3 mm 2 mps 748 mmHg 70%
    19:00 +19°C° 0 mm 2 mps 749 mmHg 72%
    20:00 +17°C° 0 mm 2 mps 749 mmHg 75%
    21:00 +15°C° 0 mm 2 mps 749 mmHg 78%
    22:00 +15°C° 0 mm 2 mps 750 mmHg 78%
    23:00 +14°C° 0 mm 2 mps 750 mmHg 78%

    Mañana, 15 Agosto, Miércoles

    Tiempo Temperatura Precipitaciones Viento Presión Humedad
    00:00 +14°C° 0 mm 2 mps 750 mmHg 78%
    01:00 +14°C° 0 mm 2 mps 751 mmHg 79%
    02:00 +13°C° 0 mm 2 mps 751 mmHg 80%
    03:00 +13°C° 0 mm 2 mps 751 mmHg 81%
    04:00 +13°C° 0 mm 2 mps 751 mmHg 81%
    05:00 +14°C° 0 mm 2 mps 751 mmHg 81%
    06:00 +14°C° 0 mm 2 mps 752 mmHg 81%
    07:00 +16°C° 0 mm 2 mps 752 mmHg 74%
    08:00 +18°C° 0 mm 3 mps 752 mmHg 68%
    09:00 +20°C° 0 mm 3 mps 752 mmHg 61%
    10:00 +21°C° 0 mm 3 mps 752 mmHg 57%
    11:00 +22°C° 0 mm 3 mps 752 mmHg 53%
    12:00 +24°C° 0 mm 3 mps 752 mmHg 49%
    13:00 +25°C° 0 mm 3 mps 752 mmHg 50%
    14:00 +25°C° 0 mm 3 mps 752 mmHg 50%
    15:00 +25°C° 0 mm 3 mps 752 mmHg 51%
    16:00 +24°C° 0 mm 2 mps 752 mmHg 55%
    17:00 +23°C° 0 mm 2 mps 751 mmHg 60%
    18:00 +23°C° 0 mm 2 mps 751 mmHg 64%
    19:00 +20°C° 0 mm 2 mps 751 mmHg 68%
    20:00 +19°C° 0 mm 2 mps 751 mmHg 72%
    21:00 +18°C° 0 mm 3 mps 751 mmHg 76%
    22:00 +18°C° 0 mm 3 mps 751 mmHg 76%
    23:00 +18°C° 0 mm 4 mps 750 mmHg 76%

    Pasado mañana, 16 Agosto, Jueves

    Tiempo Temperatura Precipitaciones Viento Presión Humedad
    00:00 +18°C° 0 mm 4 mps 750 mmHg 76%
    01:00 +18°C° 0,5 mm 4 mps 750 mmHg 80%
    02:00 +18°C° 0,5 mm 4 mps 749 mmHg 83%
    03:00 +17°C° 0,5 mm 4 mps 749 mmHg 87%
    04:00 +17°C° 0,1 mm 5 mps 749 mmHg 87%
    05:00 +17°C° 0,1 mm 5 mps 748 mmHg 87%
    06:00 +17°C° 0,1 mm 5 mps 748 mmHg 87%
    07:00 +20°C° 0,2 mm 5 mps 748 mmHg 84%
    08:00 +21°C° 0,2 mm 6 mps 748 mmHg 80%
    09:00 +23°C° 0,2 mm 6 mps 748 mmHg 76%
    10:00 +24°C° 0 mm 6 mps 748 mmHg 71%
    11:00 +26°C° 0 mm 6 mps 748 mmHg 66%
    12:00 +27°C° 0 mm 6 mps 748 mmHg 61%
    13:00 +27°C° 0,7 mm 6 mps 748 mmHg 62%
    14:00 +27°C° 0,7 mm 6 mps 748 mmHg 63%
    15:00 +27°C° 0,7 mm 6 mps 748 mmHg 65%
    16:00 +25°C° 0,7 mm 5 mps 748 mmHg 71%
    17:00 +23°C° 0,7 mm 4 mps 748 mmHg 78%
    18:00 +21°C° 0,7 mm 4 mps 749 mmHg 84%
    19:00 +20°C° 0 mm 3 mps 749 mmHg 87%
    20:00 +19°C° 0 mm 3 mps 749 mmHg 90%
    21:00 +18°C° 0 mm 2 mps 749 mmHg 94%
    22:00 +18°C° 0 mm 2 mps 749 mmHg 95%
    23:00 +17°C° 0 mm 2 mps 750 mmHg 96%

    17 Agosto, Viernes

    Tiempo Temperatura Precipitaciones Viento Presión Humedad
    00:00 +16°C° 0 mm 2 mps 750 mmHg 97%
    01:00 +16°C° 0 mm 2 mps 750 mmHg 97%
    02:00 +15°C° 0 mm 2 mps 750 mmHg 97%
    03:00 +14°C° 0 mm 2 mps 751 mmHg 97%
    04:00 +14°C° 0 mm 2 mps 751 mmHg 95%
    05:00 +14°C° 0 mm 2 mps 752 mmHg 93%
    06:00 +13°C° 0 mm 3 mps 752 mmHg 92%
    07:00 +16°C° 0 mm 3 mps 752 mmHg 84%
    08:00 +17°C° 0 mm 3 mps 752 mmHg 77%
    09:00 +19°C° 0 mm 3 mps 753 mmHg 70%
    10:00 +20°C° 0 mm 3 mps 753 mmHg 65%
    11:00 +21°C° 0 mm 3 mps 753 mmHg 59%
    12:00 +22°C° 0 mm 3 mps 753 mmHg 54%
    13:00 +22°C° 0 mm 4 mps 753 mmHg 53%
    14:00 +22°C° 0 mm 4 mps 753 mmHg 51%
    15:00 +22°C° 0 mm 4 mps 753 mmHg 50%
    16:00 +21°C° 0 mm 4 mps 753 mmHg 55%
    17:00 +20°C° 0 mm 4 mps 753 mmHg 60%
    18:00 +19°C° 0 mm 3 mps 753 mmHg 64%
    19:00 +18°C° 0 mm 3 mps 754 mmHg 68%
    20:00 +16°C° 0 mm 3 mps 754 mmHg 72%
    21:00 +13°C° 0 mm 3 mps 754 mmHg 76%
    22:00 +13°C° 0 mm 3 mps 754 mmHg 77%
    23:00 +12°C° 0 mm 3 mps 754 mmHg 78%

    18 Agosto, Sábado

    Tiempo Temperatura Precipitaciones Viento Presión Humedad
    00:00 +11°C° 0 mm 3 mps 755 mmHg 79%
    01:00 +11°C° 0 mm 3 mps 755 mmHg 80%
    02:00 +10°C° 0 mm 2 mps 755 mmHg 81%
    03:00 +10°C° 0 mm 2 mps 755 mmHg 81%
    04:00 +10°C° 0 mm 3 mps 756 mmHg 81%
    05:00 +10°C° 0 mm 3 mps 756 mmHg 80%
    06:00 +11°C° 0 mm 3 mps 756 mmHg 80%
    07:00 +13°C° 0 mm 3 mps 756 mmHg 73%
    08:00 +14°C° 0 mm 4 mps 756 mmHg 67%
    09:00 +17°C° 0 mm 4 mps 756 mmHg 61%
    10:00 +18°C° 0 mm 4 mps 756 mmHg 58%
    11:00 +19°C° 0 mm 4 mps 756 mmHg 55%
    12:00 +20°C° 0 mm 4 mps 756 mmHg 52%
    13:00 +20°C° 0 mm 4 mps 756 mmHg 52%
    14:00 +20°C° 0 mm 4 mps 756 mmHg 52%
    15:00 +20°C° 0 mm 4 mps 756 mmHg 52%
    16:00 +20°C° 0 mm 3 mps 756 mmHg 57%
    17:00 +19°C° 0 mm 3 mps 756 mmHg 62%
    18:00 +18°C° 0 mm 2 mps 756 mmHg 67%
    19:00 +16°C° 0 mm 2 mps 756 mmHg 72%
    20:00 +15°C° 0 mm 2 mps 756 mmHg 77%
    21:00 +13°C° 0 mm 1 mps 757 mmHg 81%
    22:00 +12°C° 0 mm 1 mps 757 mmHg 83%
    23:00 +12°C° 0 mm 1 mps 757 mmHg 84%

    19 Agosto, Domingo

    Tiempo Temperatura Precipitaciones Viento Presión Humedad
    00:00 +11°C° 0 mm 1 mps 757 mmHg 86%
    01:00 +11°C° 0 mm 1 mps 757 mmHg 86%
    02:00 +11°C° 0 mm 1 mps 757 mmHg 87%
    03:00 +10°C° 0 mm 1 mps 757 mmHg 88%
    04:00 +11°C° 0 mm 1 mps 757 mmHg 86%
    05:00 +11°C° 0 mm 1 mps 757 mmHg 83%
    06:00 +12°C° 0 mm 1 mps 757 mmHg 81%
    07:00 +14°C° 0 mm 1 mps 757 mmHg 73%
    08:00 +16°C° 0 mm 1 mps 757 mmHg 66%
    09:00 +19°C° 0 mm 1 mps 757 mmHg 58%
    10:00 +20°C° 0 mm 1 mps 757 mmHg 54%
    11:00 +21°C° 0 mm 1 mps 757 mmHg 50%
    12:00 +22°C° 0 mm 1 mps 757 mmHg 45%
    13:00 +22°C° 0 mm 1 mps 756 mmHg 45%
    14:00 +22°C° 0 mm 1 mps 756 mmHg 44%
    15:00 +22°C° 0 mm 1 mps 756 mmHg 43%
    16:00 +21°C° 0 mm 1 mps 756 mmHg 49%
    17:00 +20°C° 0 mm 1 mps 755 mmHg 54%
    18:00 +19°C° 0 mm 1 mps 755 mmHg 60%
    19:00 +18°C° 0 mm 1 mps 755 mmHg 63%
    20:00 +15°C° 0 mm 1 mps 755 mmHg 67%
    21:00 +14°C° 0 mm 2 mps 755 mmHg 70%
    22:00 +13°C° 0 mm 2 mps 755 mmHg 72%
    23:00 +13°C° 0 mm 2 mps 755 mmHg 74%
    Mostrar más